FW3803 Weather Reports


time (UTC)temp
F
wind
direction
speed
knots
gust
knots
rain 1hr
in
rain 24hr
in
rain mn
in
humidity
%
barometer
mb
20260510180016 81 23 0.9 2.6 0.00 0.00 0.00 39 1024.2
20260510175516 81 135 0.9 2.6 0.00 0.00 0.00 44 1024.4
20260510175036 81 0.0 0.9 0.00 0.00 0.00 40 1024.3
20260510174516 81 0.0 1.7 0.00 0.00 0.00 40 1024.3
20260510174021 81 293 0.9 5.2 0.00 0.00 0.00 39 1024.3
20260510173516 81 113 0.9 4.3 0.00 0.00 0.00 39 1024.3
20260510173037 80 23 0.9 3.5 0.00 0.00 0.00 40 1024.3
20260510172516 81 23 0.9 3.5 0.00 0.00 0.00 37 1024.3
20260510172015 81 135 0.9 2.6 0.00 0.00 0.00 41 1024.3
20260510171515 81 135 0.9 1.7 0.00 0.00 0.00 43 1024.3
20260510171016 81 0.0 1.7 0.00 0.00 0.00 42 1024.5
20260510170536 81 135 0.9 2.6 0.00 0.00 0.00 43 1024.6
20260510170015 80 338 0.9 1.7 0.00 0.00 0.00 40 1024.6
20260510165516 81 0 0.9 1.7 0.00 0.00 0.00 41 1024.8
20260510165015 81 135 1.7 5.2 0.00 0.00 0.00 39 1024.7
20260510164516 81 135 0.9 5.2 0.00 0.00 0.00 40 1024.9
20260510164016 81 113 0.9 3.5 0.00 0.00 0.00 41 1024.9
20260510163516 81 0.0 1.7 0.00 0.00 0.00 40 1024.9
20260510163015 82 0.0 0.9 0.00 0.00 0.00 40 1024.9
20260510162515 82 135 0.9 2.6 0.00 0.00 0.00 41 1025.0
20260510162015 82 135 1.7 2.6 0.00 0.00 0.00 38 1024.9
20260510161516 82 135 1.7 3.5 0.00 0.00 0.00 37 1025.0
20260510161016 82 135 0.9 3.5 0.00 0.00 0.00 41 1025.0
20260510160515 82 135 0.9 2.6 0.00 0.00 0.00 46 1025.2
20260510160016 83 135 0.9 4.3 0.00 0.00 0.00 46 1025.2
20260510155516 83 0.0 0.9 0.00 0.00 0.00 45 1025.1
20260510155016 83 0.0 1.7 0.00 0.00 0.00 45 1025.1
20260510154515 82 0.0 2.6 0.00 0.00 0.00 43 1025.2
20260510154016 82 0.0 2.6 0.00 0.00 0.00 43 1025.1
20260510153516 81 135 0.9 2.6 0.00 0.00 0.00 43 1025.2
20260510153016 81 135 0.9 3.5 0.00 0.00 0.00 43 1025.2
20260510152535 81 0.0 0.9 0.00 0.00 0.00 48 1025.2
20260510152036 80 0.0 0.0 0.00 0.00 0.00 51 1025.4
20260510151515 80 270 0.9 2.6 0.00 0.00 0.00 47 1025.4
20260510151016 80 158 0.9 1.7 0.00 0.00 0.00 47 1025.4
20260510150516 80 0.0 1.7 0.00 0.00 0.00 50 1025.4
20260510150015 79 0.0 2.6 0.00 0.00 0.00 50 1025.3
20260510145521 79 0.0 0.9 0.00 0.00 0.00 51 1025.3
20260510145036 78 0.0 0.0 0.00 0.00 0.00 54 1025.3
20260510144515 78 0.0 0.9 0.00 0.00 0.00 50 1025.2
20260510144016 78 0.0 0.9 0.00 0.00 0.00 51 1025.2
20260510143515 78 0.0 1.7 0.00 0.00 0.00 51 1025.2
20260510143016 78 0.0 0.9 0.00 0.00 0.00 55 1025.1
20260510142516 78 0.0 1.7 0.00 0.00 0.00 52 1025.1
20260510142015 77 0.0 1.7 0.00 0.00 0.00 54 1025.1
20260510141536 76 0.0 0.9 0.00 0.00 0.00 60 1024.9
20260510141015 75 0.0 0.9 0.00 0.00 0.00 59 1024.9
20260510140516 75 0.0 0.9 0.00 0.00 0.00 60 1024.9
20260510140035 75 0.0 0.9 0.00 0.00 0.00 62 1025.0
20260510135516 74 0.0 0.9 0.00 0.00 0.00 63 1024.9
20260510135015 74 0.0 0.9 0.00 0.00 0.00 60 1024.9
20260510134536 73 0.0 0.9 0.00 0.00 0.00 64 1024.9
20260510134015 73 0.0 0.9 0.00 0.00 0.00 63 1024.8
20260510133516 72 0.0 0.9 0.00 0.00 0.00 69 1024.8
20260510133015 72 0.0 0.9 0.00 0.00 0.00 69 1024.9
20260510132536 71 0.0 0.9 0.00 0.00 0.00 70 1024.9
20260510132015 71 0.0 0.9 0.00 0.00 0.00 70 1025.0
20260510131515 70 0.0 0.9 0.00 0.00 0.00 74 1025.0
20260510131016 69 0.0 0.0 0.00 0.00 0.00 76 1024.9
20260510130521 69 0.0 0.0 0.00 0.00 0.00 76 1024.8
20260510130035 68 0.0 0.0 0.00 0.00 0.00 81 1024.5
20260510125535 67 0.0 0.0 0.00 0.00 0.00 82 1024.6
20260510125015 65 0.0 0.0 0.00 0.00 0.00 85 1024.7
20260510124535 64 0.0 0.0 0.00 0.00 0.00 86 1024.5
20260510124016 63 0.0 0.0 0.00 0.00 0.00 89 1024.7
20260510123516 63 0.0 0.0 0.00 0.00 0.00 89 1024.6
20260510123016 61 0.0 0.0 0.00 0.00 0.00 91 1024.6
20260510122515 61 0.0 0.0 0.00 0.00 0.00 94 1024.5
20260510122015 60 0.0 0.0 0.00 0.00 0.00 95 1024.3
20260510121516 59 0.0 0.0 0.00 0.00 0.00 95 1024.2
20260510121015 58 0.0 0.0 0.00 0.00 0.00 95 1024.2
20260510120516 57 0.0 0.0 0.00 0.00 0.00 95 1024.0
20260510120016 56 0.0 0.0 0.00 0.00 0.00 95 1024.0
20260510115555 56 0.0 0.0 0.00 0.00 0.00 95 1024.0
20260510115015 55 0.0 0.0 0.00 0.00 0.00 95 1023.9
20260510114535 55 0.0 0.0 0.00 0.00 0.00 95 1023.8
20260510114015 54 0.0 0.0 0.00 0.00 0.00 95 1023.8
20260510113515 54 0.0 0.0 0.00 0.00 0.00 95 1023.8
20260510113015 53 0.0 0.0 0.00 0.00 0.00 95 1023.6
20260510112515 53 0.0 0.0 0.00 0.00 0.00 95 1023.6
20260510112016 53 0.0 0.0 0.00 0.00 0.00 95 1023.5
20260510111515 53 0.0 0.0 0.00 0.00 0.00 95 1023.3
20260510111035 52 0.0 0.0 0.00 0.00 0.00 95 1023.3
20260510110515 52 0.0 0.0 0.00 0.00 0.00 95 1023.3
20260510110015 52 0.0 0.0 0.00 0.00 0.00 95 1023.2
20260510105556 52 0.0 0.0 0.00 0.00 0.00 95 1023.1
20260510105056 52 0.0 0.0 0.00 0.00 0.00 94 1023.0
20260510104515 52 0.0 0.0 0.00 0.00 0.00 94 1023.0
20260510104015 52 0.0 0.0 0.00 0.00 0.00 94 1023.0
20260510103515 52 0.0 0.0 0.00 0.00 0.00 94 1023.0
20260510103035 52 0.0 0.0 0.00 0.00 0.00 94 1023.0
20260510102516 52 0.0 0.0 0.00 0.00 0.00 94 1022.9
20260510102015 52 0.0 0.0 0.00 0.00 0.00 94 1022.9
20260510101515 53 0.0 0.0 0.00 0.00 0.00 94 1022.9
20260510101040 53 0.0 0.0 0.00 0.00 0.00 94 1022.8
20260510100515 53 0.0 0.0 0.00 0.00 0.00 94 1022.8
20260510100016 53 0.0 0.0 0.00 0.00 0.00 94 1022.6
20260510095516 53 0.0 0.0 0.00 0.00 0.00 94 1022.4
20260510095015 53 0.0 0.0 0.00 0.00 0.00 94 1022.4
20260510094515 54 0.0 0.0 0.00 0.00 0.00 94 1022.3
20260510094016 54 0.0 0.0 0.00 0.00 0.00 94 1022.3
20260510093515 54 0.0 0.0 0.00 0.00 0.00 94 1022.2
20260510093015 54 0.0 0.0 0.00 0.00 0.00 94 1022.1
20260510092515 54 0.0 0.0 0.00 0.00 0.00 94 1022.2
20260510092016 54 0.0 0.0 0.00 0.00 0.00 94 1022.2
20260510091515 55 0.0 0.0 0.00 0.00 0.00 94 1022.2
20260510091035 55 0.0 0.0 0.00 0.00 0.00 94 1022.1
20260510090515 55 0.0 0.0 0.00 0.00 0.00 94 1022.2
20260510090016 55 0.0 0.0 0.00 0.00 0.00 94 1022.1
20260510085535 55 0.0 0.0 0.00 0.00 0.00 93 1022.0
20260510085015 56 0.0 0.0 0.00 0.00 0.00 93 1022.0
20260510084515 56 0.0 0.0 0.00 0.00 0.00 93 1021.9
20260510084035 56 0.0 0.0 0.00 0.00 0.00 93 1021.9
20260510083515 56 0.0 0.0 0.00 0.00 0.00 93 1022.0
20260510083035 56 0.0 0.0 0.00 0.00 0.00 93 1022.0
20260510082515 57 0.0 0.0 0.00 0.00 0.00 94 1022.0
20260510082015 57 0.0 0.0 0.00 0.00 0.00 94 1022.0
20260510081515 57 0.0 0.0 0.00 0.00 0.00 93 1022.0
20260510081015 57 0.0 0.0 0.00 0.00 0.00 93 1022.0
20260510080515 57 0.0 0.0 0.00 0.00 0.00 93 1022.0
20260510080035 57 0.0 0.0 0.00 0.00 0.00 93 1021.9
20260510075535 57 0.0 0.0 0.00 0.00 0.00 93 1021.8
20260510075035 57 0.0 0.0 0.00 0.00 0.00 93 1021.8
20260510074515 58 0.0 0.0 0.00 0.00 0.00 93 1021.8
20260510074015 58 0.0 0.0 0.00 0.00 0.00 93 1021.8
20260510073515 58 0.0 0.0 0.00 0.00 0.00 93 1021.7
20260510073015 58 0.0 0.0 0.00 0.00 0.00 93 1021.8
20260510072515 58 0.0 0.0 0.00 0.00 0.00 93 1021.7
20260510072015 58 0.0 0.0 0.00 0.00 0.00 93 1021.7
20260510071515 58 0.0 0.0 0.00 0.00 0.00 93 1021.7
20260510071015 58 0.0 0.0 0.00 0.00 0.00 93 1021.7
20260510070515 58 0.0 0.0 0.00 0.00 0.00 93 1021.7
20260510070015 58 0.0 0.0 0.00 0.00 0.00 93 1021.7
20260510065535 58 0.0 0.0 0.00 0.00 0.00 93 1021.6
20260510065015 59 0.0 0.0 0.00 0.00 0.00 93 1021.7
20260510064515 59 0.0 0.0 0.00 0.00 0.00 93 1021.7
20260510064015 59 0.0 0.0 0.00 0.00 0.00 93 1021.8
20260510063515 59 0.0 0.0 0.00 0.00 0.00 92 1021.7
20260510063015 59 0.0 0.0 0.00 0.00 0.00 92 1021.8
20260510062515 59 0.0 0.0 0.00 0.00 0.00 92 1021.7
20260510062016 59 0.0 0.0 0.00 0.00 0.00 92 1021.8
20260510061515 59 0.0 0.0 0.00 0.00 0.00 92 1021.9
20260510061015 59 0.0 0.0 0.00 0.00 0.00 93 1021.9
20260510060515 59 0.0 0.0 0.00 0.00 0.00 93 1021.9
20260510060015 59 0.0 0.0 0.00 0.00 0.00 92 1022.0
20260510055515 59 0.0 0.0 0.00 0.00 0.00 92 1021.9
20260510055015 59 0.0 0.0 0.00 0.00 0.00 92 1021.9
20260510054515 59 0.0 0.0 0.00 0.00 0.00 92 1021.9
20260510054015 59 0.0 0.0 0.00 0.00 0.00 91 1021.9
20260510053515 59 0.0 0.0 0.00 0.00 0.00 91 1022.0
20260510053015 59 0.0 0.0 0.00 0.00 0.00 91 1022.1
20260510052515 59 0.0 0.0 0.00 0.00 0.00 91 1022.1
20260510052015 59 0.0 0.0 0.00 0.00 0.00 91 1022.0
20260510051515 59 0.0 0.0 0.00 0.00 0.00 91 1022.2
20260510051015 59 0.0 0.0 0.00 0.00 0.00 91 1022.1
20260510050515 59 0.0 0.0 0.00 0.00 0.00 91 1022.1
20260510050015 59 0.0 0.0 0.00 0.00 0.00 90 1022.1
20260510045515 59 0.0 0.0 0.00 0.00 0.00 90 1022.1
20260510045015 59 0.0 0.0 0.00 0.00 0.00 90 1022.1
20260510044535 59 0.0 0.0 0.00 0.00 0.00 90 1022.0
20260510044015 59 0.0 0.0 0.00 0.00 0.00 90 1022.0
20260510043535 59 0.0 0.0 0.00 0.00 0.00 89 1022.2
20260510043015 59 0.0 0.0 0.00 0.00 0.00 89 1022.2
20260510042555 59 0.0 0.0 0.00 0.00 0.00 89 1022.1
20260510042035 60 0.0 0.0 0.00 0.00 0.00 89 1022.1
20260510041515 60 0.0 0.0 0.00 0.00 0.00 89 1022.0
20260510041015 60 0.0 0.0 0.00 0.00 0.00 89 1022.0
20260510040515 60 0.0 0.0 0.00 0.00 0.00 89 1022.0
20260510040015 60 0.0 0.0 0.00 0.00 0.00 89 1022.0
20260510035516 60 0.0 0.0 0.00 0.00 0.00 89 1021.8
20260510035016 60 0.0 0.0 0.00 0.00 0.00 88 1021.9
20260510034516 60 0.0 0.0 0.00 0.00 0.00 88 1021.8
20260510034016 60 0.0 0.0 0.00 0.00 0.00 88 1021.9
20260510033516 60 0.0 0.0 0.00 0.00 0.00 88 1021.8
20260510033016 60 0.0 0.0 0.00 0.00 0.00 88 1021.8
20260510032516 60 0.0 0.0 0.00 0.00 0.00 88 1021.7
20260510032016 60 0.0 0.0 0.00 0.00 0.00 88 1021.7
20260510031516 60 0.0 0.0 0.00 0.00 0.00 87 1021.6
20260510031036 60 0.0 0.0 0.00 0.00 0.00 87 1021.7
20260510030516 60 0.0 0.0 0.00 0.00 0.00 87 1021.6
20260510030016 60 0.0 0.9 0.00 0.00 0.00 87 1021.5
20260510025556 60 0.0 0.0 0.00 0.00 0.00 87 1021.6
20260510025056 61 0.0 0.0 0.00 0.00 0.00 86 1021.6
20260510024516 61 0.0 0.0 0.00 0.00 0.00 86 1021.5
20260510024016 61 0.0 0.0 0.00 0.00 0.00 87 1021.4
20260510023536 61 0.0 0.0 0.00 0.00 0.00 86 1021.4
20260510023016 61 0.0 0.0 0.00 0.00 0.00 86 1021.3
20260510022516 61 0.0 0.0 0.00 0.00 0.00 86 1021.2
20260510022016 61 0.0 0.0 0.00 0.00 0.00 85 1021.2
20260510021516 61 0.0 0.0 0.00 0.00 0.00 85 1021.1
20260510021016 61 0.0 0.0 0.00 0.00 0.00 85 1021.1
20260510020516 61 0.0 0.0 0.00 0.00 0.00 85 1020.9
20260510020016 62 0.0 0.0 0.00 0.00 0.00 84 1020.9
20260510015516 62 0.0 0.0 0.00 0.00 0.00 84 1020.8
20260510015036 62 0.0 0.0 0.00 0.00 0.00 84 1020.7
20260510014516 62 0.0 0.0 0.00 0.00 0.00 83 1020.5
20260510014016 62 0.0 0.0 0.00 0.00 0.00 83 1020.5
20260510013516 62 0.0 0.0 0.00 0.00 0.00 83 1020.7
20260510013016 62 0.0 0.0 0.00 0.00 0.00 82 1020.5
20260510012516 63 0.0 0.0 0.00 0.00 0.00 82 1020.3
20260510012036 63 0.0 0.0 0.00 0.00 0.00 82 1020.5
20260510011539 63 0.0 0.0 0.00 0.00 0.00 81 1020.4
20260510011036 63 0.0 0.0 0.00 0.00 0.00 81 1020.2
20260510010516 63 0.0 0.0 0.00 0.00 0.00 81 1020.2
20260510010016 64 0.0 0.0 0.00 0.00 0.00 80 1020.2
20260510005516 64 0.0 0.0 0.00 0.00 0.00 79 1020.0
20260510005016 64 0.0 0.0 0.00 0.00 0.00 78 1020.1
20260510004516 64 0.0 0.0 0.00 0.00 0.00 78 1020.1
20260510004016 65 0.0 0.0 0.00 0.00 0.00 77 1020.0
20260510003516 65 0.0 0.0 0.00 0.00 0.00 76 1019.9
20260510003016 66 0.0 0.0 0.00 0.00 0.00 76 1019.9
20260510002516 66 0.0 0.0 0.00 0.00 0.00 75 1019.8
20260510002016 66 0.0 0.0 0.00 0.00 0.00 74 1019.7
20260510001516 67 0.0 0.0 0.00 0.00 0.00 73 1019.7
20260510001016 67 0.0 0.0 0.00 0.00 0.00 73 1019.6
20260510000521 68 0.0 0.0 0.00 0.00 0.00 72 1019.4
20260510000016 68 0.0 0.0 0.00 0.00 0.00 71 1019.5
20260509235516 68 0.0 0.0 0.00 0.00 0.00 70 1019.4
20260509235016 69 0.0 0.0 0.00 0.00 0.00 69 1019.3
20260509234516 69 0.0 0.0 0.00 0.00 0.00 69 1019.3
20260509234036 69 0.0 0.0 0.00 0.00 0.00 67 1019.1
20260509233516 70 0.0 0.0 0.00 0.00 0.00 67 1019.0
20260509233036 70 0.0 0.0 0.00 0.00 0.00 66 1019.1
20260509232516 70 0.0 0.0 0.00 0.00 0.00 66 1019.1
20260509232016 70 0.0 0.0 0.00 0.00 0.00 65 1019.1
20260509231536 71 0.0 0.9 0.00 0.00 0.00 65 1019.2
20260509231016 71 0.0 0.0 0.00 0.00 0.00 65 1019.2
20260509230516 71 0.0 0.9 0.00 0.00 0.00 63 1019.2
20260509230036 71 0.0 0.9 0.00 0.00 0.00 62 1019.1
20260509225516 72 0.0 0.0 0.00 0.00 0.00 63 1019.0
20260509225016 72 0.0 0.9 0.00 0.00 0.00 62 1019.0
20260509224536 72 0.0 1.7 0.00 0.00 0.00 61 1019.1
20260509224016 71 0.0 0.0 0.00 0.00 0.00 62 1019.0
20260509223516 72 0.0 0.0 0.00 0.00 0.00 61 1019.1
20260509223017 72 0.0 0.9 0.00 0.00 0.00 62 1019.2
20260509222516 72 0.0 0.9 0.00 0.00 0.00 61 1019.1
20260509222116 72 0.0 0.9 0.00 0.00 0.00 62 1019.1
20260509221516 72 0.0 0.9 0.00 0.00 0.00 61 1019.0
20260509221016 72 0.0 0.9 0.00 0.00 0.00 59 1019.0
20260509220516 72 0.0 0.9 0.00 0.00 0.00 59 1019.0
20260509220016 72 0.0 0.9 0.00 0.00 0.00 60 1019.0
20260509215516 72 0.0 0.9 0.00 0.00 0.00 58 1018.9
20260509215016 73 0.0 0.9 0.00 0.00 0.00 59 1018.9
20260509214536 73 0.0 0.9 0.00 0.00 0.00 58 1019.0
20260509214016 73 0.0 0.9 0.00 0.00 0.00 58 1018.9
20260509213516 74 0.0 6.1 0.00 0.00 0.00 58 1018.9
20260509213016 74 113 0.9 4.3 0.00 0.00 0.00 55 1018.7
20260509212516 74 0.0 2.6 0.00 0.00 0.00 56 1018.8
20260509212036 73 0.0 2.6 0.00 0.00 0.00 58 1018.8
20260509211516 73 0.0 2.6 0.00 0.00 0.00 57 1018.7
20260509211016 73 135 0.9 6.1 0.00 0.00 0.00 55 1018.5
20260509210516 73 0.0 4.3 0.00 0.00 0.00 55 1018.7
20260509210016 73 0.0 0.9 0.00 0.00 0.00 55 1018.8
20260509205516 73 338 0.9 4.3 0.00 0.00 0.00 55 1018.8
20260509205056 73 0.0 1.7 0.00 0.00 0.00 56 1018.8
20260509204516 73 293 0.9 2.6 0.00 0.00 0.00 61 1018.9
20260509204016 73 0.0 2.6 0.00 0.00 0.00 57 1018.7
20260509203536 73 135 0.9 3.5 0.00 0.00 0.00 60 1018.7
20260509203016 73 0.0 1.7 0.00 0.00 0.00 60 1018.7
20260509202516 73 0.0 0.9 0.00 0.00 0.00 61 1018.9
20260509202016 72 0.0 0.9 0.00 0.00 0.00 61 1018.8
20260509201516 72 0.0 1.7 0.00 0.00 0.00 61 1019.0
20260509201036 72 0.0 0.9 0.00 0.00 0.00 59 1019.0
20260509200616 72 0.0 0.9 0.00 0.00 0.00 60 1019.1
20260509200016 72 0.0 1.7 0.00 0.00 0.00 60 1019.0
20260509195516 72 0.0 4.3 0.00 0.00 0.00 60 1019.1
20260509195016 72 0.0 1.7 0.00 0.00 0.00 59 1019.2
20260509194516 72 0 1.7 8.7 0.00 0.00 0.00 59 1019.2
20260509194016 72 113 0.9 3.5 0.00 0.00 0.00 58 1019.3
20260509193516 72 0.0 0.9 0.00 0.00 0.00 59 1019.4
20260509193036 73 338 0.9 4.3 0.00 0.00 0.00 60 1019.5
20260509192516 73 0.0 0.9 0.00 0.00 0.00 60 1019.7
20260509192016 73 0.0 0.9 0.00 0.00 0.00 57 1019.7
20260509191536 73 135 0.9 7.0 0.00 0.00 0.00 60 1019.7
20260509191017 73 0.0 1.7 0.00 0.00 0.00 62 1019.8
20260509190536 72 0.0 2.6 0.00 0.00 0.00 59 1019.8
20260509190016 72 0.0 2.6 0.00 0.00 0.00 59 1019.9
20260509185516 72 0.0 1.7 0.00 0.00 0.00 59 1020.1
20260509185016 72 0.0 0.9 0.00 0.00 0.00 57 1020.1
20260509184516 72 0.0 1.7 0.00 0.00 0.00 58 1020.1
20260509184015 73 0.0 1.7 0.00 0.00 0.00 57 1020.1
20260509183516 73 338 0.9 2.6 0.00 0.00 0.00 57 1020.2
20260509183036 73 338 0.9 1.7 0.00 0.00 0.00 55 1020.3
20260509182516 74 338 0.9 2.6 0.00 0.00 0.00 54 1020.3
20260509182016 74 135 0.9 5.2 0.00 0.00 0.00 54 1020.3
20260509181515 74 135 0.9 3.5 0.00 0.00 0.00 54 1020.3
20260509181015 74 158 0.9 2.6 0.00 0.00 0.00 55 1020.4
20260509180516 74 135 0.9 6.1 0.00 0.00 0.00 54 1020.4